When you browse on this site, cookies collect data to enhance your experience and personalize the content and advertising you see.
Visit our Privacy Policy to learn more. By continuing to use the site, you agree to this use of cookies and data.
  • Em Portugal
  • Lista de países
  • Para 7 dias
  • Temperatura da água
  • Mapas de satélite
  • Mapa do tempo
  • Widgets de tempo
  • user-avatar
    Iniciar Sessão

    Previsão horária em Sidnei

    Hoje, 18 Julho, Quinta-feira

    Tempo Temperatura Precipitação Vento Pressão Humidade
    00:00 +8°C° 0 mm 5 m/s 760 mmHg 60%
    01:00 +8°C° 0 mm 4 m/s 759 mmHg 62%
    02:00 +7°C° 0 mm 4 m/s 759 mmHg 63%
    03:00 +7°C° 0 mm 4 m/s 759 mmHg 64%
    04:00 +7°C° 0 mm 4 m/s 758 mmHg 67%
    05:00 +7°C° 0 mm 4 m/s 759 mmHg 69%
    06:00 +7°C° 0 mm 4 m/s 760 mmHg 71%
    07:00 +7°C° 0 mm 4 m/s 760 mmHg 73%
    08:00 +9°C° 0 mm 5 m/s 761 mmHg 65%
    09:00 +12°C° 0 mm 5 m/s 761 mmHg 56%
    10:00 +15°C° 0 mm 4 m/s 761 mmHg 45%
    11:00 +17°C° 0 mm 4 m/s 760 mmHg 39%
    12:00 +18°C° 0 mm 4 m/s 760 mmHg 33%
    13:00 +20°C° 0 mm 3 m/s 760 mmHg 27%
    14:00 +19°C° 0 mm 3 m/s 760 mmHg 29%
    15:00 +19°C° 0 mm 3 m/s 760 mmHg 30%
    16:00 +19°C° 0 mm 2 m/s 761 mmHg 31%
    17:00 +17°C° 0 mm 2 m/s 761 mmHg 37%
    18:00 +15°C° 0 mm 2 m/s 762 mmHg 44%
    19:00 +13°C° 0 mm 2 m/s 762 mmHg 50%
    20:00 +11°C° 0 mm 3 m/s 762 mmHg 53%
    21:00 +10°C° 0 mm 4 m/s 763 mmHg 56%
    22:00 +8°C° 0 mm 4 m/s 763 mmHg 59%
    23:00 +8°C° 0 mm 4 m/s 763 mmHg 63%

    Amanhã, 19 Julho, Sexta-feira

    Tempo Temperatura Precipitação Vento Pressão Humidade
    00:00 +7°C° 0 mm 4 m/s 763 mmHg 66%
    01:00 +6°C° 0 mm 4 m/s 763 mmHg 70%
    02:00 +5°C° 0 mm 4 m/s 763 mmHg 69%
    03:00 +5°C° 0 mm 4 m/s 763 mmHg 69%
    04:00 +4°C° 0 mm 4 m/s 763 mmHg 69%
    05:00 +4°C° 0 mm 4 m/s 763 mmHg 66%
    06:00 +4°C° 0 mm 4 m/s 763 mmHg 64%
    07:00 +4°C° 0 mm 4 m/s 764 mmHg 62%
    08:00 +7°C° 0 mm 4 m/s 764 mmHg 56%
    09:00 +10°C° 0 mm 4 m/s 764 mmHg 51%
    10:00 +13°C° 0 mm 4 m/s 764 mmHg 45%
    11:00 +16°C° 0 mm 3 m/s 764 mmHg 42%
    12:00 +17°C° 0 mm 3 m/s 764 mmHg 39%
    13:00 +19°C° 0 mm 2 m/s 763 mmHg 36%
    14:00 +19°C° 0 mm 2 m/s 764 mmHg 39%
    15:00 +18°C° 0 mm 2 m/s 764 mmHg 41%
    16:00 +18°C° 0 mm 2 m/s 764 mmHg 44%
    17:00 +16°C° 0 mm 2 m/s 764 mmHg 51%
    18:00 +14°C° 0 mm 2 m/s 765 mmHg 57%
    19:00 +13°C° 0 mm 2 m/s 766 mmHg 64%
    20:00 +12°C° 0 mm 1 m/s 766 mmHg 66%
    21:00 +11°C° 0 mm 1 m/s 766 mmHg 68%
    22:00 +11°C° 0 mm 1 m/s 767 mmHg 70%
    23:00 +10°C° 0 mm 1 m/s 767 mmHg 73%

    Depois de amanhã, 20 Julho, Sábado

    Tempo Temperatura Precipitação Vento Pressão Humidade
    00:00 +9°C° 0 mm 2 m/s 766 mmHg 75%
    01:00 +8°C° 0 mm 2 m/s 766 mmHg 77%
    02:00 +8°C° 0 mm 2 m/s 766 mmHg 79%
    03:00 +7°C° 0 mm 2 m/s 766 mmHg 81%
    04:00 +7°C° 0 mm 2 m/s 766 mmHg 83%
    05:00 +7°C° 0 mm 2 m/s 766 mmHg 84%
    06:00 +6°C° 0 mm 2 m/s 766 mmHg 84%
    07:00 +5°C° 0 mm 3 m/s 767 mmHg 84%
    08:00 +8°C° 0 mm 3 m/s 766 mmHg 74%
    09:00 +11°C° 0 mm 3 m/s 766 mmHg 64%
    10:00 +13°C° 0 mm 3 m/s 766 mmHg 54%
    11:00 +16°C° 0 mm 3 m/s 765 mmHg 47%
    12:00 +18°C° 0 mm 4 m/s 764 mmHg 40%
    13:00 +20°C° 0 mm 5 m/s 763 mmHg 34%
    14:00 +20°C° 0 mm 5 m/s 763 mmHg 34%
    15:00 +20°C° 0 mm 5 m/s 763 mmHg 35%
    16:00 +20°C° 0 mm 6 m/s 763 mmHg 36%
    17:00 +17°C° 0 mm 5 m/s 763 mmHg 40%
    18:00 +15°C° 0 mm 5 m/s 763 mmHg 45%
    19:00 +14°C° 0 mm 5 m/s 764 mmHg 49%
    20:00 +13°C° 0 mm 5 m/s 764 mmHg 53%
    21:00 +12°C° 0 mm 5 m/s 764 mmHg 56%
    22:00 +11°C° 0 mm 4 m/s 764 mmHg 59%
    23:00 +10°C° 0 mm 4 m/s 763 mmHg 62%

    21 Julho, Domingo

    Tempo Temperatura Precipitação Vento Pressão Humidade
    00:00 +10°C° 0 mm 4 m/s 763 mmHg 65%
    01:00 +8°C° 0 mm 4 m/s 763 mmHg 68%
    02:00 +8°C° 0 mm 4 m/s 762 mmHg 70%
    03:00 +7°C° 0 mm 4 m/s 762 mmHg 71%
    04:00 +7°C° 0 mm 4 m/s 762 mmHg 73%
    05:00 +7°C° 0 mm 4 m/s 762 mmHg 73%
    06:00 +7°C° 0 mm 3 m/s 762 mmHg 73%
    07:00 +7°C° 0 mm 3 m/s 762 mmHg 74%
    08:00 +10°C° 0 mm 3 m/s 762 mmHg 64%
    09:00 +12°C° 0 mm 3 m/s 762 mmHg 54%
    10:00 +16°C° 0 mm 3 m/s 762 mmHg 45%
    11:00 +18°C° 0 mm 3 m/s 761 mmHg 41%
    12:00 +20°C° 0 mm 3 m/s 760 mmHg 36%
    13:00 +23°C° 0 mm 2 m/s 760 mmHg 32%
    14:00 +23°C° 0 mm 2 m/s 759 mmHg 33%
    15:00 +23°C° 0 mm 2 m/s 759 mmHg 33%
    16:00 +23°C° 0 mm 2 m/s 759 mmHg 34%
    17:00 +20°C° 0 mm 3 m/s 760 mmHg 39%
    18:00 +18°C° 0 mm 3 m/s 760 mmHg 44%
    19:00 +15°C° 0 mm 4 m/s 761 mmHg 50%
    20:00 +14°C° 0 mm 4 m/s 761 mmHg 53%
    21:00 +13°C° 0 mm 4 m/s 761 mmHg 57%
    22:00 +12°C° 0 mm 4 m/s 761 mmHg 61%
    23:00 +12°C° 0 mm 3 m/s 762 mmHg 62%

    22 Julho, Segunda-feira

    Tempo Temperatura Precipitação Vento Pressão Humidade
    00:00 +11°C° 0 mm 3 m/s 762 mmHg 64%
    01:00 +11°C° 0 mm 3 m/s 762 mmHg 66%
    02:00 +11°C° 0 mm 3 m/s 762 mmHg 65%
    03:00 +11°C° 0 mm 3 m/s 762 mmHg 63%
    04:00 +12°C° 0 mm 2 m/s 762 mmHg 62%
    05:00 +12°C° 0 mm 2 m/s 762 mmHg 65%
    06:00 +10°C° 0 mm 2 m/s 763 mmHg 68%
    07:00 +9°C° 0 mm 2 m/s 763 mmHg 72%
    08:00 +12°C° 0 mm 2 m/s 763 mmHg 64%
    09:00 +14°C° 0 mm 2 m/s 763 mmHg 56%
    10:00 +16°C° 0 mm 2 m/s 763 mmHg 49%
    11:00 +18°C° 0 mm 2 m/s 763 mmHg 44%
    12:00 +20°C° 0 mm 2 m/s 762 mmHg 38%
    13:00 +22°C° 0 mm 1 m/s 762 mmHg 33%
    14:00 +21°C° 0 mm 2 m/s 762 mmHg 36%
    15:00 +21°C° 0 mm 3 m/s 761 mmHg 39%
    16:00 +20°C° 0 mm 4 m/s 761 mmHg 42%
    17:00 +19°C° 0 mm 4 m/s 762 mmHg 50%
    18:00 +17°C° 0 mm 4 m/s 762 mmHg 58%
    19:00 +14°C° 0 mm 4 m/s 762 mmHg 66%
    20:00 +13°C° 0 mm 3 m/s 763 mmHg 65%
    21:00 +13°C° 0 mm 3 m/s 763 mmHg 64%
    22:00 +13°C° 0 mm 2 m/s 763 mmHg 64%
    23:00 +12°C° 0 mm 3 m/s 763 mmHg 63%

    23 Julho, Terça-feira

    Tempo Temperatura Precipitação Vento Pressão Humidade
    00:00 +11°C° 0 mm 3 m/s 762 mmHg 63%
    01:00 +11°C° 0 mm 3 m/s 762 mmHg 63%
    02:00 +10°C° 0 mm 3 m/s 762 mmHg 65%
    03:00 +10°C° 0 mm 3 m/s 762 mmHg 67%
    04:00 +10°C° 0 mm 3 m/s 761 mmHg 68%
    05:00 +9°C° 0 mm 3 m/s 762 mmHg 69%
    06:00 +9°C° 0 mm 3 m/s 762 mmHg 70%
    07:00 +8°C° 0 mm 4 m/s 762 mmHg 72%
    08:00 +11°C° 0 mm 4 m/s 762 mmHg 62%
    09:00 +14°C° 0 mm 4 m/s 762 mmHg 53%
    10:00 +16°C° 0 mm 5 m/s 762 mmHg 44%
    11:00 +19°C° 0 mm 4 m/s 762 mmHg 36%
    12:00 +21°C° 0 mm 3 m/s 761 mmHg 28%
    13:00 +24°C° 0 mm 3 m/s 760 mmHg 19%
    14:00 +24°C° 0 mm 3 m/s 760 mmHg 20%
    15:00 +22°C° 0 mm 3 m/s 760 mmHg 21%
    16:00 +22°C° 0 mm 4 m/s 760 mmHg 22%
    17:00 +20°C° 0 mm 4 m/s 760 mmHg 27%
    18:00 +18°C° 0 mm 4 m/s 760 mmHg 32%
    19:00 +15°C° 0 mm 5 m/s 761 mmHg 37%
    20:00 +14°C° 0 mm 5 m/s 761 mmHg 40%
    21:00 +13°C° 0 mm 4 m/s 761 mmHg 42%
    22:00 +12°C° 0 mm 4 m/s 762 mmHg 45%
    23:00 +12°C° 0 mm 4 m/s 762 mmHg 47%
    Mostrar mais